FENGYUN 1C DEB, 37053

Orbit data source: Space-Track

FENGYUN 1C DEB, 37053 is space debris in SSO originally from a launch on Mon, 10 May 1999 UTC launched from the Taiyaun Space Center, China (TSC). Fengyun 1C debris stems from the Chinese weather satellite Fengyun-1C, which was intentionally destroyed by a Chinese anti-satellite missile in 2007. This event dramatically increased the amount of space debris, with thousands of trackable fragments posing hazards to satellites and human spaceflight. The Fengyun 1C debris cloud has become a focal point in discussions about space sustainability and the need for international regulations to prevent the creation of new debris.

Loading next visibility...
Identifier
37053, 1999-025EEM
Orbit
SSO
Country
Flag of CNCN / PRC
Related business
Manufacturer
Unknown
Mission
Spacecraft
Bus & Motor
Unknown
Mass
Unknown
Launch date (UTC)
Icon of a cake. It is the launch day of the satellite!1999-05-10 (27 years ago)
Launch vehicle
Unknown
Launch site
Taiyaun Space Center, China (TSC)
Object type
Payload
Rocket body
Debris
Shape & HBR
Unknown shape, 0.1 m
Radar Cross Section
Small (<0.1 m²)

Expand to show TLE details & history
Last TLE update: 3 days ago

TLE from 3 days ago
0 FENGYUN 1C DEB
1 37053U 99025EEM 26127.56958510  .00004336  00000-0  99073-3 0  9997
2 37053  99.1479 252.1478 0041611  94.3748 323.3577 14.55782040671589
Epoch: 2026-05-07T13:40Z
TLE epoch observation values (Epoch: 2026-05-07T13:40:12.152Z)
Latitude
56.42464°
Longitude
167.72053°
Altitude
692.601 km
Speed
7.528 km/s
True Right ascension
15h 52m 44s
True Declination
56° 15' 52"
Sunlit
Object was in daylight at epoch
Visualization orbit readout
Latitude
Unknown
Longitude
Unknown
Altitude
Unknown
Speed
Unknown
Apparent Right ascension
Unknown
Apparent Declination
Unknown
Sunlit
N/A
Visualization observer readout
Local Sidereal Time
21:26:41
Azimuth
Unknown
Elevation
Unknown
Doppler factor
Unknown
Orbital elements
Apogee altitude
733.428 km
Perigee altitude
674.49 km
Semi-major axis
7,082.096 km
Eccentricity
0.00416
Inclination
99.1479°
RAAN
252.1478°
Arg. of periapsis
94.3748°
True anomaly
323.07193°
Mean anomaly
323.3577°
Eccentric anomaly
323.21493°
Mean motion
3.64167 °/min
Orbital period
98.86 mins
BSTAR
0.00099073
Loading maneuver chart data...
Computing Atmospheric mass density...

Documentation

Showing up to 5 results
|